ネオワイズ彗星

C/2020 F3 ( NEOWISE )

English version
Home page
Updated on September 9, 2020

---------------------------------------------------------------------

・ プロフィール

発見日 2020年3月27日
発見光度 17等
発見者 Near-Earth Object Wide-field Infrared Survey Explorer

・ 写真集

・ 軌道要素

Epoch 2020 July 10.0 TT = JDT 2459040.5
T 2020 July 3.67906 TT                                  Rudenko
q   0.2946495            (2000.0)            P               Q
z  +0.0027626      Peri.   37.27883     +0.71860090     +0.14386831
 +/-0.0000016      Node    61.01055     +0.28190295     -0.95464033
e   0.9991860      Incl.  128.93732     +0.63572280     +0.26069857
From 1151 observations 2020 Mar. 27-Aug. 29, mean residual 0".7.

・ 星図

・ 光度変化

        m1 = 3.5 + 5 logΔ + 30   log r  [   ,-66]  (              〜2020年 4月28日)
        m1 = 7.0 + 5 logΔ + 12.0 log r  [-66,  0]  (2020年 4月28日〜2020年 7月 3日)
        m1 = 6.0 + 5 logΔ + 10.0 log r  [  0,   ]  (2020年 7月 3日〜              )

---------------------------------------------------------------------

軌道要素はM.P.E.C. 2020-R04に掲載されたものです。
星図はステラナビゲータ Ver.10 (アストロアーツ) で作成したものです。
光度グラフはComet for Windowsで作成したものです。

---------------------------------------------------------------------

Copyright(C) Seiichi Yoshida (comet@aerith.net). All rights reserved.